Phoenix, Arizona
Traffic Map
Current Weather Conditions
Phoenix, Arizona
Clear
Clear
21°
Feels Like: 21°
Wind Chill: 21° Ceiling: Unl
Heat Index: 21° Visibility: 10mi
Dew Point: -1° Wind: 3mph
Humidity: 24% Direction: 100° (E)
Pressure: 29.9in Gusts: 0mph
Raw Report DataKPHX 251051Z 10003KT 10SM CLR 21/M01 A2990 RMK AO2 SLP108 T02061006
Traffic Incident Summary
Active as of:
Severity:
Category:
InformationThere was an issue retrieving the traffic information for this location. Please try a different location or try again shortly.
Advertisements
Track Severe Weather on mobile